Location: Chiroubles
(46.1812°N, 4.6660°E)
Time: 22:19:29
(UTC+00:00)

SR - Pass Details

Date: 04 December 2020
Orbit: 575 x 880 km, 66.7° (Epoch: 23 January)

Event Time Altitude Azimuth Distance (km) Brightness Sun altitude
Rises 18:49:21 0° 270° (W) 2,881 ? -29.1°
Reaches altitude 10° 18:52:31 10° 294° (WNW) 2,030 ? -29.7°
Maximum altitude 18:55:05 15° 329° (NNW) 1,785 ? -30.1°
Enters shadow 18:55:55 14° 341° (NNW) 1,832 ? -30.3°
